Date String (YYYY-MM-DD hh:mm:ss) UTC,Instrument flags,Ambient pressure (hPa),Sample flow (lpm),Bypass flow (lpm),Sample temperature (°C),Ambient temperature (°C),ASC tube jacket temperature (°C),LED temperature (°C),Box temperature (°C),Sample RH (%),Span deviation,Mass concentration (μg/m³),Mass concentration (μg/m³),Mass concentration (μg/m³)
DateTimeUTC,F1_M11,P_M11,Q1_M11,Q2_M11,T1_M11,T2_M11,T3_M11,T4_M11,T5_M11,U1_M11,ZSPAN_M11,X0_M11,X2_M11,X1_M11
2022-01-14 16:00:00,,0827.3,5.00,0.00,23.7,23.0,00.0,32.7,25.5,12.1,0000.0,0011.72,0001.64,0000.61
2022-01-14 16:01:00,,0827.4,4.99,0.00,23.7,23.0,00.0,32.7,25.5,12.2,0000.0,0011.04,0001.60,0000.59
2022-01-14 16:02:00,,0827.4,5.02,0.00,23.7,23.0,00.0,32.7,25.5,12.2,0000.0,0010.63,0001.55,0000.57
2022-01-14 16:03:00,,0827.4,4.99,0.00,23.7,22.9,00.0,32.7,25.5,12.4,0000.0,0010.21,0001.45,0000.56
2022-01-14 16:04:00,,0827.4,5.00,0.00,23.7,22.9,00.0,32.7,25.5,12.4,0000.0,0009.62,0001.37,0000.55
2022-01-14 16:05:00,,0827.4,5.00,0.00,23.7,22.9,00.0,32.7,25.5,12.4,0000.0,0008.24,0001.24,0000.53
2022-01-14 16:06:00,,0827.3,5.01,0.00,23.7,22.9,00.0,32.7,25.5,12.4,0000.0,0007.73,0001.07,0000.52
2022-01-14 16:07:00,,0827.4,4.98,0.00,23.7,22.9,00.0,32.7,25.5,12.3,0000.0,0007.00,0000.92,0000.50
2022-01-14 16:08:00,,0827.3,5.01,0.00,23.7,22.9,00.0,32.7,25.5,12.3,0000.0,0003.43,0000.86,0000.49
2022-01-14 16:09:00,,0827.4,4.99,0.00,23.7,22.9,00.0,32.7,25.5,12.3,0000.0,0004.40,0000.82,0000.48
2022-01-14 16:10:00,,0827.3,5.00,0.00,23.6,22.9,00.0,32.7,25.5,12.3,0000.0,0004.81,0000.82,0000.48
2022-01-14 16:11:00,,0827.4,5.01,0.00,23.6,22.9,00.0,32.7,25.4,12.3,0000.0,0004.51,0000.83,0000.49
2022-01-14 16:12:00,,0827.3,5.01,0.00,23.6,22.9,00.0,32.7,25.4,12.2,0000.0,0004.53,0000.83,0000.49
2022-01-14 16:13:00,,0827.3,4.99,0.00,23.6,22.8,00.0,32.7,25.4,12.1,0000.0,0004.71,0000.83,0000.49
2022-01-14 16:14:00,,0827.4,5.01,0.00,23.6,22.8,00.0,32.6,25.3,12.2,0000.0,0004.75,0000.84,0000.50
2022-01-14 16:15:00,,0827.4,4.99,0.00,23.5,22.8,00.0,32.6,25.2,12.3,0000.0,0005.99,0000.85,0000.50
2022-01-14 16:16:00,,0827.4,5.00,0.00,23.5,22.8,00.0,32.6,25.2,12.3,0000.0,0006.10,0000.83,0000.50
2022-01-14 16:17:00,,0827.4,5.01,0.00,23.5,22.7,00.0,32.6,25.1,12.3,0000.0,0006.25,0000.85,0000.50
2022-01-14 16:18:00,,0827.4,4.99,0.00,23.4,22.7,00.0,32.6,25.1,12.4,0000.0,0006.57,0000.86,0000.50
2022-01-14 16:19:00,,0827.5,5.01,0.00,23.4,22.6,00.0,32.6,25.1,12.4,0000.0,0006.58,0000.84,0000.50
2022-01-14 16:20:00,,0827.5,5.01,0.00,23.4,22.6,00.0,32.5,25.0,12.4,0000.0,0005.12,0000.84,0000.51
2022-01-14 16:21:00,,0827.5,4.99,0.00,23.3,22.6,00.0,32.5,25.0,12.3,0000.0,0004.36,0000.81,0000.51
2022-01-14 16:22:00,,0827.6,5.01,0.00,23.3,22.5,00.0,32.5,25.0,12.4,0000.0,0004.64,0000.77,0000.50
2022-01-14 16:23:00,,0827.7,5.01,0.00,23.3,22.5,00.0,32.5,24.9,12.5,0000.0,0004.91,0000.76,0000.49
2022-01-14 16:24:00,,0827.7,4.99,0.00,23.2,22.5,00.0,32.4,24.9,12.7,0000.0,0004.64,0000.74,0000.48
2022-01-14 16:25:00,,0827.7,5.01,0.00,23.2,22.4,00.0,32.4,24.9,12.7,0000.0,0004.55,0000.72,0000.48
2022-01-14 16:26:00,,0827.7,5.00,0.00,23.1,22.4,00.0,32.4,24.8,12.8,0000.0,0003.58,0000.71,0000.47
2022-01-14 16:27:00,,0827.7,5.00,0.00,23.1,22.4,00.0,32.4,24.8,12.8,0000.0,0003.12,0000.68,0000.46
2022-01-14 16:28:00,,0827.7,5.00,0.00,23.1,22.3,00.0,32.3,24.8,12.9,0000.0,0003.03,0000.68,0000.46
2022-01-14 16:29:00,,0827.8,5.00,0.00,23.1,22.3,00.0,32.3,24.8,12.9,0000.0,0002.60,0000.67,0000.45
2022-01-14 16:30:00,,0827.8,5.00,0.00,23.0,22.3,00.0,32.3,24.8,12.9,0000.0,0002.51,0000.69,0000.45
2022-01-14 16:31:00,,0827.8,5.00,0.00,23.0,22.3,00.0,32.3,24.7,13.1,0000.0,0002.91,0000.67,0000.44
2022-01-14 16:32:00,,0827.8,5.01,0.00,23.0,22.3,00.0,32.2,24.7,13.1,0000.0,0002.53,0000.65,0000.43
2022-01-14 16:33:00,,0827.9,5.00,0.00,23.0,22.2,00.0,32.2,24.7,13.2,0000.0,0002.08,0000.64,0000.42
2022-01-14 16:34:00,,0828.0,5.00,0.00,22.9,22.2,00.0,32.2,24.6,13.4,0000.0,0001.76,0000.62,0000.42
2022-01-14 16:35:00,,0827.9,5.01,0.00,22.9,22.2,00.0,32.2,24.6,13.4,0000.0,0001.68,0000.61,0000.41
2022-01-14 16:36:00,,0828.0,5.01,0.00,22.9,22.2,00.0,32.1,24.6,13.5,0000.0,0001.70,0000.61,0000.41
2022-01-14 16:37:00,,0828.1,5.01,0.00,22.9,22.2,00.0,32.1,24.6,13.6,0000.0,0001.67,0000.60,0000.41
2022-01-14 16:38:00,,0828.1,4.98,0.00,22.9,22.1,00.0,32.1,24.6,13.7,0000.0,0002.29,0000.62,0000.42
2022-01-14 16:39:00,,0828.1,5.00,0.00,22.9,22.1,00.0,32.1,24.6,13.7,0000.0,0002.43,0000.63,0000.43
2022-01-14 16:40:00,,0828.2,5.00,0.00,22.8,22.1,00.0,32.0,24.5,13.7,0000.0,0002.38,0000.62,0000.43
2022-01-14 16:41:00,,0828.2,5.01,0.00,22.8,22.1,00.0,32.0,24.5,13.7,0000.0,0002.36,0000.61,0000.43
2022-01-14 16:42:00,,0828.4,4.99,0.00,22.8,22.1,00.0,32.0,24.5,13.8,0000.0,0002.09,0000.62,0000.44
2022-01-14 16:43:00,,0828.2,5.00,0.00,22.8,22.1,00.0,32.0,24.5,13.9,0000.0,0001.79,0000.63,0000.44
2022-01-14 16:44:00,,0828.2,5.01,0.00,22.8,22.1,00.0,32.0,24.5,13.8,0000.0,0001.97,0000.63,0000.45
2022-01-14 16:45:00,,0828.2,4.98,0.00,22.8,22.0,00.0,31.9,24.4,13.7,0000.0,0002.13,0000.63,0000.45
2022-01-14 16:46:00,,0828.2,5.02,0.00,22.7,22.0,00.0,31.9,24.5,13.7,0000.0,0002.63,0000.64,0000.45
2022-01-14 16:47:00,,0828.2,5.00,0.00,22.7,22.0,00.0,31.9,24.4,13.4,0000.0,0002.69,0000.62,0000.45
2022-01-14 16:48:00,,0828.3,4.99,0.00,22.7,22.0,00.0,31.9,24.4,13.4,0000.0,0002.67,0000.61,0000.44
2022-01-14 16:49:00,,0828.3,5.01,0.00,22.7,22.0,00.0,31.9,24.4,13.5,0000.0,0002.07,0000.59,0000.42
2022-01-14 16:50:00,,0828.2,5.01,0.00,22.7,22.0,00.0,31.9,24.4,13.8,0000.0,0001.86,0000.56,0000.41
2022-01-14 16:51:00,,0828.3,5.01,0.00,22.6,22.0,00.0,31.8,24.3,14.0,0000.0,0001.79,0000.53,0000.40
2022-01-14 16:52:00,,0828.3,4.99,0.00,22.6,22.0,00.0,31.8,24.3,13.9,0000.0,0002.06,0000.54,0000.39
2022-01-14 16:53:00,,0828.3,5.02,0.00,22.6,21.9,00.0,31.8,24.3,13.8,0000.0,0002.21,0000.53,0000.38
2022-01-14 16:54:00,,0828.4,4.99,0.00,22.6,21.9,00.0,31.8,24.3,13.8,0000.0,0002.18,0000.52,0000.38
2022-01-14 16:55:00,,0828.4,5.01,0.00,22.6,21.9,00.0,31.8,24.3,13.9,0000.0,0002.00,0000.51,0000.37
2022-01-14 16:56:00,,0828.4,4.99,0.00,22.6,21.9,00.0,31.7,24.3,13.8,0000.0,0001.93,0000.53,0000.36
2022-01-14 16:57:00,,0828.5,5.01,0.00,22.5,21.8,00.0,31.7,24.2,13.8,0000.0,0001.55,0000.55,0000.36
2022-01-14 16:58:00,,0828.4,5.00,0.00,22.5,21.8,00.0,31.7,24.2,14.0,0000.0,0001.68,0000.59,0000.37
2022-01-14 16:59:00,,0828.5,5.00,0.00,22.5,21.8,00.0,31.7,24.2,14.1,0000.0,0001.69,0000.60,0000.37
